QPF
0.07 0.06 0.08 0.09 0.08 0.07 0.08 0.09 0.08 0.07 0.05 0.04 0.04 0.05 0.05 0.04 0.02 0.01 0.03 0.03 0.02 0.02 0.03 0.02 0.02 0.02 0.02 0.03 0.03 0.02 0.03 0.03 0.02 0.02 0.03 0.04 0.05 0.05 0.06 0.06 0.06 0.06 0.05
0.05 0.04 0.05 0.06 0.07 0.07 0.06 0.06 0.05 0.06 0.05 0.05 0.04 0.03 0.05 0.05 0.03 0.03 0.04 0.04 0.04 0.03 0.02 0.02 0.01 0.02 0.04 0.04 0.03 0.02 0.02 0.02 0.03 0.03 0.04 0.03 0.04 0.04 0.05 0.06 0.07 0.07 0.05
0.05 0.05 0.04 0.04 0.05 0.08 0.07 0.05 0.05 0.06 0.07 0.07 0.06 0.04 0.05 0.05 0.05 0.04 0.04 0.04 0.04 0.04 0.03 0.02 0.02 0.02 0.03 0.03 0.03 0.02 0.02 0.03 0.03 0.04 0.06 0.05 0.04 0.05 0.04 0.04 0.05 0.06 0.05
0.04 0.06 0.04 0.05 0.05 0.06 0.07 0.08 0.08 0.05 0.07 0.07 0.08 0.08 0.05 0.05 0.06 0.05 0.04 0.06 0.06 0.06 0.07 0.05 0.03 0.02 0.02 0.03 0.03 0.03 0.03 0.03 0.04 0.05 0.07 0.06 0.05 0.04 0.04 0.04 0.04 0.04 0.04
0.05 0.06 0.06 0.06 0.06 0.07 0.06 0.06 0.08 0.07 0.06 0.06 0.06 0.06 0.04 0.04 0.06 0.07 0.10 0.11 0.11 0.10 0.09 0.09 0.08 0.04 0.02 0.02 0.03 0.04 0.04 0.05 0.07 0.07 0.06 0.06 0.06 0.06 0.06 0.05 0.04 0.04 0.04
0.05 0.05 0.04 0.04 0.05 0.07 0.06 0.06 0.09 0.09 0.07 0.07 0.06 0.05 0.04 0.04 0.04 0.04 0.07 0.09 0.08 0.08 0.06 0.06 0.06 0.05 0.03 0.02 0.02 0.02 0.04 0.05 0.06 0.07 0.06 0.05 0.05 0.07 0.09 0.08 0.07 0.05 0.05
0.04 0.05 0.04 0.06 0.06 0.07 0.06 0.06 0.07 0.08 0.07 0.07 0.08 0.06 0.05 0.05 0.04 0.04 0.05 0.05 0.05 0.06 0.06 0.05 0.06 0.06 0.04 0.04 0.03 0.03 0.03 0.03 0.03 0.05 0.04 0.04 0.05 0.06 0.07 0.07 0.08 0.08 0.07
0.04 0.04 0.06 0.05 0.05 0.06 0.06 0.06 0.07 0.07 0.06 0.09 0.10 0.09 0.07 0.07 0.05 0.04 0.03 0.03 0.04 0.06 0.05 0.05 0.06 0.07 0.07 0.08 0.07 0.04 0.03 0.03 0.03 0.04 0.03 0.03 0.03 0.04 0.05 0.05 0.06 0.06 0.07
0.02 0.03 0.04 0.05 0.05 0.06 0.07 0.06 0.06 0.07 0.09 0.09 0.08 0.09 0.09 0.10 0.07 0.04 0.02 0.02 0.03 0.04 0.04 0.06 0.05 0.05 0.04 0.06 0.06 0.04 0.03 0.02 0.02 0.02 0.02 0.02 0.02 0.03 0.03 0.04 0.05 0.07 0.07
0.03 0.03 0.03 0.05 0.07 0.07 0.08 0.06 0.06 0.05 0.07 0.07 0.06 0.06 0.07 0.09 0.08 0.07 0.06 0.04 0.05 0.06 0.04 0.05 0.07 0.06 0.04 0.04 0.04 0.03 0.02 0.01 0.01 0.01 0.01 0.01 0.01 0.01 0.02 0.02 0.03 0.04 0.07
0.04 0.03 0.03 0.04 0.05 0.07 0.07 0.06 0.06 0.04 0.04 0.05 0.04 0.04 0.06 0.07 0.07 0.08 0.09 0.08 0.08 0.07 0.05 0.05 0.06 0.07 0.06 0.07 0.05 0.04 0.03 0.01 0.01 0.01 0.01 0.02 0.02 0.01 0.01 0.02 0.02 0.03 0.03
0.05 0.04 0.05 0.05 0.05 0.06 0.07 0.05 0.05 0.05 0.05 0.04 0.04 0.03 0.04 0.06 0.07 0.08 0.07 0.08 0.08 0.07 0.06 0.06 0.06 0.06 0.06 0.07 0.04 0.04 0.02 0.02 0.01 0.01 0.01 0.01 0.02 0.02 0.02 0.03 0.02 0.03 0.03
0.03 0.04 0.04 0.04 0.04 0.04 0.05 0.06 0.06 0.07 0.05 0.04 0.04 0.05 0.05 0.05 0.07 0.07 0.07 0.07 0.07 0.06 0.07 0.05 0.04 0.06 0.10 0.10 0.08 0.06 0.03 0.02 0.01 0.00 0.00 0.01 0.01 0.01 0.02 0.02 0.02 0.03 0.04
0.02 0.01 0.02 0.03 0.04 0.04 0.04 0.06 0.06 0.07 0.06 0.05 0.04 0.06 0.05 0.05 0.05 0.06 0.07 0.08 0.07 0.07 0.07 0.08 0.08 0.11 0.14 0.16 0.12 0.07 0.04 0.03 0.01 0.01 0.00 0.00 0.00 0.01 0.02 0.02 0.01 0.02 0.02
0.01 0.01 0.02 0.04 0.05 0.04 0.05 0.06 0.06 0.07 0.07 0.07 0.05 0.05 0.05 0.05 0.04 0.04 0.06 0.07 0.08 0.08 0.07 0.09 0.11 0.07 0.07 0.08 0.11 0.10 0.09 0.07 0.05 0.02 0.01 0.00 0.01 0.01 0.02 0.01 0.01 0.01 0.01
0.02 0.02 0.02 0.04 0.05 0.04 0.06 0.06 0.04 0.05 0.05 0.05 0.05 0.06 0.06 0.05 0.04 0.04 0.05 0.07 0.08 0.08 0.07 0.06 0.08 0.07 0.07 0.06 0.09 0.10 0.12 0.10 0.06 0.03 0.02 0.01 0.01 0.01 0.01 0.01 0.01 0.01 0.00
0.03 0.02 0.02 0.03 0.04 0.04 0.04 0.05 0.04 0.04 0.05 0.04 0.04 0.04 0.04 0.04 0.05 0.04 0.04 0.05 0.06 0.09 0.11 0.10 0.12 0.10 0.10 0.11 0.10 0.11 0.10 0.09 0.07 0.04 0.02 0.01 0.01 0.01 0.01 0.01 0.01 0.00 0.01
0.05 0.04 0.03 0.04 0.04 0.03 0.03 0.04 0.04 0.05 0.05 0.04 0.03 0.05 0.07 0.07 0.06 0.06 0.05 0.04 0.06 0.08 0.09 0.08 0.09 0.10 0.12 0.11 0.09 0.10 0.09 0.07 0.07 0.05 0.03 0.02 0.01 0.00 0.01 0.02 0.01 0.00 0.00
0.04 0.05 0.06 0.06 0.06 0.05 0.04 0.04 0.04 0.05 0.05 0.05 0.06 0.06 0.07 0.08 0.06 0.05 0.05 0.05 0.05 0.05 0.07 0.07 0.07 0.08 0.08 0.08 0.08 0.08 0.08 0.08 0.06 0.06 0.06 0.03 0.02 0.01 0.01 0.01 0.01 0.01 0.02
0.03 0.04 0.05 0.06 0.06 0.04 0.04 0.04 0.04 0.04 0.05 0.05 0.07 0.08 0.07 0.07 0.07 0.07 0.06 0.05 0.05 0.05 0.05 0.06 0.07 0.06 0.06 0.07 0.09 0.08 0.08 0.08 0.07 0.05 0.05 0.04 0.03 0.02 0.01 0.02 0.03 0.03 0.03
0.02 0.03 0.04 0.05 0.06 0.05 0.04 0.03 0.03 0.04 0.04 0.04 0.05 0.06 0.07 0.07 0.08 0.09 0.07 0.05 0.05 0.05 0.05 0.05 0.05 0.05 0.06 0.08 0.08 0.08 0.09 0.08 0.08 0.06 0.05 0.04 0.04 0.03 0.02 0.03 0.03 0.04 0.04
0.03 0.04 0.04 0.05 0.05 0.04 0.04 0.04 0.03 0.03 0.04 0.03 0.03 0.04 0.04 0.04 0.06 0.06 0.05 0.05 0.05 0.05 0.05 0.06 0.06 0.07 0.07 0.09 0.09 0.08 0.10 0.10 0.10 0.08 0.09 0.06 0.05 0.05 0.05 0.05 0.06 0.06 0.04
0.04 0.04 0.04 0.03 0.03 0.03 0.03 0.04 0.04 0.03 0.04 0.04 0.03 0.03 0.02 0.02 0.03 0.03 0.03 0.03 0.03 0.03 0.04 0.05 0.05 0.05 0.06 0.07 0.08 0.07 0.08 0.09 0.09 0.09 0.12 0.09 0.07 0.05 0.04 0.03 0.04 0.04 0.04
0.04 0.05 0.04 0.03 0.03 0.04 0.04 0.03 0.04 0.03 0.04 0.04 0.04 0.04 0.03 0.03 0.03 0.05 0.05 0.04 0.04 0.04 0.04 0.03 0.03 0.04 0.04 0.05 0.06 0.06 0.08 0.09 0.11 0.10 0.11 0.13 0.12 0.10 0.06 0.05 0.06 0.05 0.06
0.03 0.04 0.05 0.05 0.06 0.06 0.05 0.03 0.03 0.02 0.03 0.04 0.04 0.05 0.04 0.04 0.04 0.06 0.06 0.04 0.04 0.03 0.03 0.03 0.03 0.02 0.03 0.03 0.04 0.05 0.07 0.09 0.11 0.13 0.16 0.16 0.15 0.14 0.14 0.13 0.09 0.09 0.09
0.03 0.05 0.05 0.06 0.07 0.07 0.06 0.05 0.04 0.03 0.03 0.03 0.04 0.06 0.06 0.05 0.05 0.06 0.06 0.06 0.05 0.04 0.04 0.04 0.03 0.03 0.02 0.02 0.02 0.04 0.07 0.09 0.11 0.13 0.13 0.14 0.14 0.14 0.13 0.13 0.13 0.14 0.11
MSLP
1011.07 1011.03 1010.91 1010.75 1010.61 1010.50 1010.44 1010.43 1010.44 1010.42 1010.34 1010.19 1009.98 1009.76 1009.58 1009.49 1009.54 1009.75 1010.10 1010.54 1010.99 1011.39 1011.67 1011.78 1011.72 1011.50 1011.18 1010.82 1010.47 1010.18 1009.99 1009.91 1009.94 1010.07 1010.29 1010.58 1010.94 1011.35 1011.80 1012.28 1012.77 1013.26 1013.71
1010.87 1010.86 1010.78 1010.65 1010.51 1010.41 1010.35 1010.33 1010.33 1010.31 1010.26 1010.16 1010.01 1009.86 1009.74 1009.71 1009.81 1010.06 1010.43 1010.90 1011.38 1011.80 1012.10 1012.23 1012.18 1011.96 1011.62 1011.21 1010.80 1010.43 1010.14 1009.96 1009.88 1009.92 1010.04 1010.26 1010.54 1010.89 1011.29 1011.73 1012.19 1012.66 1013.11
1010.83 1010.86 1010.81 1010.70 1010.57 1010.45 1010.38 1010.34 1010.34 1010.33 1010.31 1010.25 1010.16 1010.07 1010.01 1010.04 1010.17 1010.44 1010.82 1011.28 1011.76 1012.19 1012.51 1012.67 1012.65 1012.46 1012.14 1011.74 1011.30 1010.89 1010.54 1010.27 1010.10 1010.03 1010.05 1010.16 1010.35 1010.61 1010.94 1011.32 1011.74 1012.17 1012.60
1010.96 1011.01 1010.98 1010.88 1010.75 1010.62 1010.53 1010.47 1010.45 1010.45 1010.45 1010.43 1010.40 1010.37 1010.37 1010.44 1010.60 1010.87 1011.24 1011.68 1012.14 1012.56 1012.89 1013.09 1013.12 1012.99 1012.72 1012.36 1011.95 1011.53 1011.15 1010.82 1010.57 1010.40 1010.32 1010.31 1010.39 1010.55 1010.78 1011.08 1011.43 1011.81 1012.21
1011.21 1011.27 1011.25 1011.17 1011.04 1010.90 1010.79 1010.71 1010.67 1010.66 1010.67 1010.69 1010.71 1010.74 1010.79 1010.89 1011.06 1011.33 1011.67 1012.08 1012.51 1012.92 1013.25 1013.48 1013.57 1013.52 1013.33 1013.05 1012.69 1012.31 1011.92 1011.57 1011.26 1011.00 1010.81 1010.70 1010.65 1010.69 1010.81 1011.00 1011.27 1011.58 1011.92
1011.52 1011.61 1011.61 1011.54 1011.42 1011.28 1011.15 1011.05 1010.99 1010.98 1011.00 1011.04 1011.10 1011.16 1011.26 1011.39 1011.57 1011.81 1012.12 1012.49 1012.88 1013.27 1013.60 1013.86 1014.01 1014.03 1013.95 1013.75 1013.48 1013.15 1012.79 1012.43 1012.08 1011.76 1011.48 1011.25 1011.09 1011.00 1010.99 1011.07 1011.23 1011.45 1011.72
1011.86 1011.98 1012.01 1011.97 1011.87 1011.74 1011.61 1011.50 1011.43 1011.40 1011.43 1011.48 1011.57 1011.67 1011.79 1011.93 1012.11 1012.34 1012.61 1012.93 1013.27 1013.62 1013.95 1014.23 1014.43 1014.53 1014.53 1014.43 1014.25 1013.99 1013.67 1013.32 1012.95 1012.58 1012.23 1011.91 1011.63 1011.43 1011.30 1011.26 1011.30 1011.41 1011.59
1012.21 1012.37 1012.45 1012.46 1012.40 1012.29 1012.17 1012.06 1011.98 1011.95 1011.98 1012.04 1012.14 1012.26 1012.39 1012.54 1012.71 1012.91 1013.14 1013.40 1013.69 1014.00 1014.31 1014.59 1014.82 1014.98 1015.05 1015.04 1014.93 1014.75 1014.48 1014.15 1013.78 1013.39 1012.98 1012.59 1012.23 1011.92 1011.69 1011.53 1011.46 1011.46 1011.53
1012.55 1012.77 1012.92 1012.99 1012.98 1012.92 1012.83 1012.73 1012.66 1012.63 1012.64 1012.71 1012.81 1012.93 1013.07 1013.21 1013.36 1013.52 1013.70 1013.90 1014.14 1014.39 1014.66 1014.92 1015.16 1015.35 1015.48 1015.53 1015.49 1015.36 1015.14 1014.85 1014.49 1014.09 1013.66 1013.23 1012.81 1012.44 1012.12 1011.88 1011.71 1011.61 1011.57
1012.90 1013.18 1013.40 1013.54 1013.60 1013.60 1013.55 1013.48 1013.41 1013.38 1013.40 1013.45 1013.55 1013.66 1013.79 1013.91 1014.03 1014.15 1014.27 1014.42 1014.58 1014.78 1014.99 1015.22 1015.44 1015.64 1015.79 1015.87 1015.87 1015.79 1015.61 1015.35 1015.02 1014.63 1014.21 1013.78 1013.35 1012.95 1012.59 1012.28 1012.04 1011.86 1011.72
1013.23 1013.58 1013.87 1014.08 1014.21 1014.26 1014.26 1014.22 1014.18 1014.16 1014.17 1014.22 1014.30 1014.40 1014.51 1014.61 1014.69 1014.77 1014.84 1014.91 1015.01 1015.13 1015.29 1015.47 1015.66 1015.83 1015.98 1016.07 1016.09 1016.03 1015.89 1015.66 1015.37 1015.01 1014.63 1014.22 1013.81 1013.42 1013.05 1012.73 1012.45 1012.21 1011.99
1013.52 1013.93 1014.28 1014.55 1014.74 1014.85 1014.89 1014.89 1014.87 1014.87 1014.88 1014.93 1015.01 1015.10 1015.19 1015.26 1015.31 1015.34 1015.36 1015.38 1015.40 1015.46 1015.55 1015.67 1015.80 1015.94 1016.06 1016.14 1016.16 1016.11 1015.99 1015.79 1015.54 1015.23 1014.89 1014.53 1014.18 1013.83 1013.50 1013.19 1012.91 1012.64 1012.37
1013.75 1014.19 1014.58 1014.90 1015.14 1015.29 1015.37 1015.41 1015.43 1015.44 1015.47 1015.53 1015.61 1015.69 1015.77 1015.83 1015.86 1015.86 1015.83 1015.79 1015.76 1015.75 1015.78 1015.83 1015.91 1016.00 1016.08 1016.13 1016.13 1016.08 1015.96 1015.79 1015.57 1015.31 1015.02 1014.73 1014.44 1014.15 1013.88 1013.62 1013.36 1013.10 1012.81
1013.88 1014.34 1014.75 1015.09 1015.36 1015.55 1015.67 1015.74 1015.79 1015.84 1015.90 1015.97 1016.07 1016.17 1016.26 1016.31 1016.33 1016.31 1016.25 1016.18 1016.10 1016.04 1016.00 1015.99 1016.02 1016.05 1016.08 1016.09 1016.07 1015.99 1015.87 1015.70 1015.50 1015.27 1015.04 1014.80 1014.58 1014.36 1014.16 1013.95 1013.74 1013.50 1013.23
1013.91 1014.37 1014.78 1015.13 1015.41 1015.62 1015.77 1015.88 1015.97 1016.06 1016.15 1016.27 1016.39 1016.52 1016.63 1016.71 1016.73 1016.71 1016.64 1016.55 1016.43 1016.33 1016.25 1016.19 1016.15 1016.13 1016.11 1016.07 1016.01 1015.90 1015.76 1015.58 1015.38 1015.17 1014.96 1014.77 1014.59 1014.43 1014.29 1014.14 1013.98 1013.79 1013.55
1013.84 1014.30 1014.70 1015.05 1015.34 1015.57 1015.75 1015.89 1016.02 1016.14 1016.28 1016.44 1016.61 1016.78 1016.93 1017.03 1017.09 1017.08 1017.02 1016.92 1016.79 1016.66 1016.53 1016.43 1016.35 1016.27 1016.20 1016.11 1016.00 1015.86 1015.68 1015.47 1015.25 1015.03 1014.82 1014.63 1014.48 1014.35 1014.24 1014.14 1014.03 1013.89 1013.69
1013.74 1014.17 1014.57 1014.92 1015.23 1015.47 1015.68 1015.85 1016.01 1016.17 1016.35 1016.56 1016.77 1016.98 1017.17 1017.32 1017.41 1017.43 1017.39 1017.29 1017.16 1017.01 1016.86 1016.72 1016.60 1016.48 1016.36 1016.22 1016.06 1015.86 1015.64 1015.39 1015.13 1014.87 1014.63 1014.43 1014.25 1014.12 1014.02 1013.94 1013.86 1013.76 1013.62
1013.64 1014.07 1014.48 1014.84 1015.16 1015.43 1015.66 1015.85 1016.04 1016.23 1016.44 1016.67 1016.92 1017.17 1017.40 1017.59 1017.71 1017.77 1017.75 1017.67 1017.54 1017.38 1017.21 1017.04 1016.88 1016.72 1016.55 1016.37 1016.16 1015.92 1015.64 1015.34 1015.03 1014.72 1014.43 1014.17 1013.95 1013.79 1013.67 1013.58 1013.51 1013.44 1013.35
1013.59 1014.05 1014.47 1014.87 1015.21 1015.50 1015.75 1015.96 1016.15 1016.35 1016.57 1016.82 1017.08 1017.35 1017.61 1017.83 1017.98 1018.06 1018.07 1018.00 1017.88 1017.72 1017.53 1017.34 1017.15 1016.95 1016.74 1016.52 1016.27 1015.98 1015.66 1015.31 1014.95 1014.58 1014.23 1013.91 1013.63 1013.40 1013.23 1013.11 1013.03 1012.97 1012.90
1013.63 1014.12 1014.59 1015.02 1015.40 1015.71 1015.97 1016.19 1016.38 1016.56 1016.77 1017.00 1017.26 1017.53 1017.79 1018.02 1018.20 1018.30 1018.32 1018.27 1018.15 1017.98 1017.78 1017.57 1017.35 1017.12 1016.88 1016.62 1016.34 1016.02 1015.67 1015.28 1014.88 1014.46 1014.05 1013.67 1013.32 1013.03 1012.80 1012.62 1012.50 1012.42 1012.37
1013.75 1014.29 1014.81 1015.28 1015.70 1016.03 1016.29 1016.50 1016.67 1016.83 1017.00 1017.20 1017.43 1017.68 1017.93 1018.15 1018.33 1018.44 1018.47 1018.42 1018.30 1018.13 1017.92 1017.69 1017.44 1017.19 1016.92 1016.64 1016.34 1016.00 1015.63 1015.23 1014.80 1014.36 1013.91 1013.48 1013.08 1012.72 1012.42 1012.18 1012.00 1011.88 1011.80
1013.90 1014.50 1015.07 1015.59 1016.03 1016.38 1016.64 1016.83 1016.97 1017.09 1017.22 1017.38 1017.57 1017.78 1018.00 1018.21 1018.38 1018.48 1018.51 1018.46 1018.34 1018.15 1017.93 1017.67 1017.40 1017.12 1016.84 1016.54 1016.23 1015.89 1015.53 1015.13 1014.71 1014.27 1013.81 1013.35 1012.92 1012.51 1012.15 1011.84 1011.59 1011.41 1011.28
1014.04 1014.68 1015.30 1015.85 1016.31 1016.67 1016.93 1017.10 1017.22 1017.30 1017.39 1017.50 1017.64 1017.81 1018.00 1018.18 1018.33 1018.42 1018.44 1018.38 1018.25 1018.05 1017.81 1017.53 1017.23 1016.93 1016.62 1016.32 1016.00 1015.68 1015.33 1014.97 1014.58 1014.16 1013.72 1013.27 1012.83 1012.39 1011.98 1011.61 1011.29 1011.03 1010.83
1014.11 1014.78 1015.42 1015.99 1016.47 1016.83 1017.09 1017.25 1017.35 1017.41 1017.47 1017.54 1017.65 1017.79 1017.94 1018.10 1018.22 1018.29 1018.29 1018.22 1018.06 1017.84 1017.58 1017.27 1016.95 1016.62 1016.29 1015.98 1015.66 1015.36 1015.04 1014.72 1014.38 1014.01 1013.62 1013.21 1012.78 1012.34 1011.90 1011.47 1011.08 1010.74 1010.45
1014.09 1014.77 1015.41 1015.98 1016.46 1016.83 1017.09 1017.26 1017.36 1017.42 1017.47 1017.53 1017.61 1017.73 1017.85 1017.97 1018.07 1018.11 1018.08 1017.99 1017.81 1017.56 1017.26 1016.93 1016.57 1016.21 1015.87 1015.54 1015.23 1014.94 1014.66 1014.38 1014.10 1013.80 1013.48 1013.12 1012.73 1012.31 1011.86 1011.40 1010.95 1010.52 1010.13
1013.98 1014.64 1015.26 1015.83 1016.31 1016.68 1016.96 1017.15 1017.27 1017.35 1017.41 1017.48 1017.55 1017.65 1017.75 1017.83 1017.89 1017.90 1017.84 1017.71 1017.50 1017.22 1016.89 1016.52 1016.13 1015.74 1015.37 1015.03 1014.71 1014.44 1014.19 1013.97 1013.75 1013.52 1013.27 1012.98 1012.64 1012.24 1011.80 1011.32 1010.82 1010.31 1009.84
Thickness
5781 5780 5778 5777 5777 5776 5776 5776 5776 5775 5775 5775 5774 5774 5773 5773 5772 5769 5766 5764 5762 5760 5759 5757 5756 5754 5753 5751 5750 5749 5748 5747 5745 5744 5742 5741 5740 5738 5737 5736 5736 5735 5734
5782 5780 5780 5779 5778 5778 5777 5777 5777 5776 5776 5776 5775 5775 5774 5773 5772 5770 5767 5764 5762 5760 5759 5757 5756 5754 5753 5751 5750 5749 5748 5747 5746 5744 5743 5741 5740 5739 5738 5737 5736 5736 5735
5783 5781 5780 5780 5780 5779 5779 5778 5778 5777 5776 5776 5776 5776 5775 5774 5772 5770 5768 5766 5763 5760 5759 5757 5756 5754 5753 5751 5750 5749 5748 5747 5746 5744 5743 5741 5740 5739 5738 5737 5737 5736 5735
5784 5782 5781 5780 5780 5780 5780 5779 5777 5776 5775 5775 5775 5775 5775 5773 5773 5771 5770 5768 5765 5762 5759 5757 5755 5754 5752 5751 5750 5749 5748 5747 5746 5744 5742 5741 5740 5739 5738 5737 5736 5736 5735
5784 5783 5782 5781 5781 5781 5780 5780 5777 5776 5774 5773 5774 5774 5774 5773 5772 5772 5771 5770 5767 5765 5762 5758 5756 5754 5752 5751 5749 5748 5747 5746 5745 5743 5742 5741 5739 5738 5737 5737 5736 5735 5734
5785 5783 5783 5781 5781 5780 5779 5778 5775 5776 5774 5773 5774 5773 5773 5774 5774 5772 5771 5770 5769 5767 5764 5761 5756 5754 5752 5750 5749 5747 5746 5745 5743 5742 5741 5740 5739 5738 5737 5736 5735 5734 5733
5784 5783 5782 5781 5780 5778 5777 5776 5774 5773 5773 5773 5769 5767 5770 5774 5773 5773 5771 5770 5769 5767 5765 5762 5759 5756 5753 5750 5748 5746 5745 5743 5742 5741 5739 5738 5737 5737 5736 5735 5734 5733 5733
5784 5784 5781 5780 5779 5777 5776 5774 5773 5770 5771 5772 5766 5760 5757 5760 5767 5772 5770 5768 5767 5767 5765 5763 5760 5757 5754 5751 5748 5745 5744 5742 5740 5739 5738 5737 5735 5734 5734 5734 5733 5732 5732
5784 5782 5781 5779 5778 5777 5774 5773 5772 5769 5766 5768 5769 5761 5753 5749 5755 5763 5766 5766 5765 5763 5763 5762 5760 5757 5754 5751 5748 5745 5743 5740 5739 5737 5736 5734 5733 5733 5732 5732 5731 5731 5730
5783 5781 5779 5778 5776 5775 5773 5772 5771 5770 5767 5764 5766 5766 5763 5759 5750 5749 5756 5761 5761 5758 5759 5760 5758 5756 5753 5750 5748 5745 5742 5739 5737 5735 5734 5732 5731 5731 5730 5730 5729 5729 5728
5781 5780 5778 5776 5774 5772 5771 5770 5769 5768 5766 5763 5762 5762 5761 5759 5757 5748 5743 5749 5754 5755 5756 5756 5754 5753 5750 5747 5746 5744 5741 5738 5735 5733 5731 5730 5729 5729 5728 5728 5727 5726 5726
5780 5778 5776 5774 5772 5771 5769 5768 5766 5765 5763 5762 5760 5759 5756 5753 5749 5748 5743 5743 5745 5749 5753 5752 5750 5749 5747 5745 5743 5741 5739 5736 5733 5731 5729 5728 5727 5726 5725 5725 5724 5723 5723
5777 5776 5775 5772 5770 5768 5767 5765 5763 5761 5760 5758 5757 5756 5756 5754 5753 5750 5744 5741 5742 5745 5748 5748 5748 5746 5745 5742 5739 5737 5735 5733 5730 5728 5726 5724 5723 5723 5722 5721 5720 5719 5719
5777 5776 5774 5771 5768 5766 5765 5763 5760 5758 5757 5755 5755 5753 5752 5752 5752 5749 5745 5739 5735 5737 5739 5741 5744 5743 5741 5738 5735 5733 5731 5729 5727 5724 5723 5721 5720 5719 5718 5718 5717 5716 5715
5777 5774 5772 5769 5766 5764 5761 5760 5757 5755 5754 5752 5750 5749 5748 5748 5748 5748 5746 5742 5733 5726 5728 5734 5737 5739 5738 5735 5732 5729 5727 5725 5723 5721 5720 5718 5717 5716 5715 5714 5713 5712 5712
5774 5771 5769 5766 5763 5761 5759 5756 5754 5752 5750 5748 5747 5745 5744 5744 5744 5744 5743 5741 5737 5730 5725 5730 5732 5734 5733 5732 5729 5728 5725 5722 5719 5718 5717 5716 5715 5713 5712 5710 5709 5709 5708
5770 5767 5765 5763 5760 5757 5755 5752 5750 5749 5746 5744 5743 5742 5740 5739 5738 5737 5738 5737 5734 5730 5723 5725 5728 5730 5728 5726 5724 5723 5722 5719 5717 5717 5715 5713 5712 5710 5709 5707 5706 5705 5704
5768 5765 5762 5759 5756 5754 5751 5749 5746 5744 5742 5740 5738 5736 5735 5735 5733 5731 5730 5729 5728 5728 5723 5719 5720 5722 5722 5723 5721 5720 5719 5718 5716 5715 5714 5711 5709 5707 5705 5704 5702 5701 5699
5765 5762 5759 5755 5752 5750 5747 5745 5742 5740 5738 5736 5734 5732 5730 5728 5726 5725 5724 5723 5722 5723 5721 5717 5716 5717 5717 5718 5716 5716 5716 5714 5714 5713 5711 5708 5706 5704 5702 5700 5698 5697 5695
5761 5758 5755 5752 5749 5746 5743 5740 5738 5736 5733 5732 5730 5728 5725 5723 5721 5720 5719 5716 5716 5715 5714 5712 5710 5710 5709 5711 5709 5707 5707 5708 5707 5708 5706 5704 5702 5699 5698 5696 5694 5692 5691
5759 5755 5751 5748 5745 5742 5739 5736 5733 5732 5728 5726 5725 5724 5722 5719 5716 5714 5713 5710 5709 5707 5706 5705 5703 5702 5701 5700 5699 5700 5698 5700 5700 5701 5699 5698 5696 5694 5693 5691 5690 5689 5688
5754 5751 5747 5744 5741 5739 5735 5732 5729 5727 5724 5722 5720 5718 5717 5714 5711 5709 5707 5705 5703 5701 5699 5697 5696 5694 5694 5694 5693 5693 5691 5689 5689 5694 5691 5690 5691 5689 5689 5688 5687 5685 5684
5750 5747 5744 5741 5737 5733 5731 5728 5725 5722 5720 5718 5716 5713 5713 5711 5707 5703 5701 5700 5698 5697 5695 5693 5690 5689 5688 5688 5687 5686 5685 5683 5683 5687 5686 5684 5686 5684 5685 5684 5682 5681 5679
5745 5742 5740 5737 5733 5729 5726 5722 5719 5717 5716 5714 5712 5708 5706 5703 5701 5697 5695 5694 5693 5692 5691 5689 5688 5687 5686 5685 5683 5682 5681 5681 5682 5683 5681 5677 5679 5679 5680 5678 5677 5676 5675
5741 5738 5735 5732 5728 5724 5720 5717 5713 5712 5710 5708 5707 5704 5701 5697 5694 5691 5689 5688 5686 5685 5686 5684 5683 5682 5681 5680 5678 5676 5674 5673 5672 5674 5675 5672 5673 5672 5672 5671 5671 5670 5668
5737 5734 5731 5728 5724 5719 5715 5711 5708 5706 5704 5702 5700 5698 5695 5692 5687 5684 5682 5681 5679 5678 5678 5677 5676 5675 5675 5675 5674 5671 5669 5666 5665 5666 5668 5667 5665 5664 5662 5664 5664 5662 5660